Wind_Speed
14 15 14 13 12 11 10 9 9 8 8 9 9 9 10 12 13 13 9 6 5 9 7 5 5 6 6 7 9 9 10 12 14 15 15 16 15 15 15 14 15 14 14 14 16 15 14
14 15 15 14 13 13 13 12 11 11 10 10 10 10 11 11 12 9 5 5 9 11 10 10 9 9 9 9 10 11 13 16 18 21 20 20 18 17 17 17 17 18 18 17 18 18 17
15 15 15 15 15 15 14 13 13 13 13 13 12 11 11 11 12 10 8 6 13 17 16 15 13 13 12 11 12 15 17 20 23 22 18 17 17 16 16 16 16 16 17 17 18 19 19
17 16 15 16 16 16 14 13 13 13 13 14 13 13 13 13 15 14 13 11 14 18 18 17 15 14 13 14 16 17 20 22 21 19 19 17 16 16 14 13 12 13 14 19 20 20 21
17 17 16 15 15 14 14 14 14 14 14 15 15 14 14 15 14 16 17 17 18 20 19 18 16 15 15 17 18 20 21 21 21 20 16 14 14 14 12 11 12 15 16 19 23 23 22
14 15 15 15 15 14 13 13 14 15 15 14 13 13 14 15 16 16 17 19 19 21 21 19 16 17 17 19 19 21 21 22 22 21 19 18 15 13 15 16 18 20 21 21 24 25 24
13 14 14 14 14 13 13 14 14 14 14 15 14 14 15 16 18 18 17 17 19 22 22 19 19 19 20 21 20 21 22 23 22 21 20 18 18 17 19 21 23 23 23 23 29 30 31
14 15 15 15 15 16 15 15 15 15 15 15 17 17 18 19 19 20 19 17 19 21 21 20 20 21 22 23 23 24 23 22 21 22 23 23 24 23 24 26 28 29 30 29 31 34 39
12 14 15 16 17 17 17 17 17 17 17 18 19 20 20 18 18 19 20 20 21 22 22 21 22 23 24 24 25 25 23 22 22 22 24 26 27 29 30 32 32 34 36 36 38 40 43
15 15 15 15 16 17 18 18 18 19 20 20 20 20 20 20 18 17 19 22 24 26 24 24 24 25 25 26 27 27 25 23 24 25 28 29 32 34 35 37 38 39 40 43 45 47 48
19 17 16 16 16 17 17 18 19 19 20 20 21 21 21 20 19 19 18 20 22 24 26 24 24 25 26 28 30 28 28 27 26 27 31 35 36 37 39 41 43 45 44 46 47 49 52
23 21 19 18 18 17 18 19 20 20 21 21 21 21 21 21 22 21 20 19 21 22 24 24 26 29 29 29 30 31 32 32 32 31 34 37 39 41 43 45 46 48 48 49 51 52 57
27 25 23 21 20 18 19 20 21 23 23 23 23 24 23 22 21 21 20 20 19 20 24 25 26 28 29 31 33 34 36 37 37 37 36 39 39 41 44 47 49 49 51 53 55 55 56
29 28 27 25 24 21 22 23 23 25 26 26 26 25 25 24 23 23 23 22 21 22 25 27 27 28 29 31 34 36 38 40 41 41 43 43 45 44 46 49 50 52 52 51 56 57 58
32 30 29 28 26 26 25 27 27 27 28 28 29 28 27 28 27 28 27 24 23 23 24 25 27 30 30 32 36 38 40 41 41 43 45 47 49 49 51 52 52 53 53 55 57 58 60
36 33 31 31 31 30 29 31 30 29 29 28 30 29 29 30 31 31 29 27 28 27 28 29 30 36 38 38 41 44 46 46 46 47 48 50 53 52 52 54 54 54 56 55 56 60 65
40 35 34 36 37 36 33 33 35 33 32 31 31 32 30 31 33 33 34 35 33 32 34 36 36 39 42 46 48 52 53 51 51 50 52 53 56 55 56 55 56 57 58 57 57 63 68
43 39 42 41 44 42 41 38 39 36 35 36 37 36 35 35 35 35 36 38 38 37 39 42 43 43 44 46 51 53 52 52 55 54 55 56 58 57 57 58 58 58 57 58 62 66 70
50 47 46 47 44 45 46 43 42 40 38 40 42 41 39 39 38 38 40 40 41 39 40 43 46 48 48 50 52 53 52 53 53 54 56 58 59 57 57 55 55 55 56 59 65 71 75
56 51 50 48 49 50 48 48 46 45 45 45 46 46 45 45 44 42 42 42 41 43 44 46 49 51 50 51 50 52 53 54 54 56 55 55 55 53 52 53 54 57 61 66 72 76 78
55 52 51 52 52 52 51 51 49 49 50 46 47 47 46 46 45 46 46 46 46 47 48 50 49 48 49 51 52 52 53 55 56 54 53 52 50 50 51 54 58 63 68 71 74 77 81
54 53 58 60 53 49 53 51 49 46 51 50 50 49 51 52 50 51 50 48 49 52 54 52 50 51 52 53 53 55 54 52 51 49 47 47 49 51 54 59 64 68 71 74 77 80 81
58 55 56 55 56 59 68 53 41 44 47 48 48 50 50 50 51 52 53 51 52 54 56 53 54 54 54 54 53 52 50 47 46 44 45 49 52 57 60 64 68 73 78 79 78 75 72
60 55 52 52 51 43 35 42 40 42 43 45 47 51 53 54 54 54 53 51 51 50 51 52 53 53 52 52 52 53 49 45 42 45 48 54 57 61 66 70 73 77 78 75 74 70 64
60 58 52 51 52 52 52 43 53 51 52 44 45 44 46 47 49 49 49 50 47 46 47 49 50 48 48 49 50 47 43 43 44 49 54 57 61 67 71 72 75 76 73 69 66 60 53
57 56 58 47 50 49 52 48 46 41 37 39 48 42 44 45 45 44 42 42 38 40 46 49 49 48 47 44 41 42 41 45 51 54 56 61 66 69 72 72 74 73 67 64 61 54 51
64 57 56 56 53 44 47 40 35 37 37 39 42 39 36 34 32 30 28 30 40 46 53 50 49 47 45 42 40 40 45 50 54 57 61 65 68 69 68 69 69 66 61 57 52 52 46
61 58 56 55 52 45 44 37 39 36 32 31 30 27 27 29 36 40 46 47 44 52 52 47 45 40 40 38 40 46 50 52 57 61 64 66 67 66 65 63 62 56 53 49 47 45 43
58 51 54 50 55 59 54 52 51 50 36 37 43 51 49 47 52 50 47 50 49 48 46 41 37 33 37 41 45 49 51 56 60 64 64 65 64 62 60 58 55 52 47 45 44 42 41
Wind_Direction
216 220 224 230 241 253 259 260 264 270 277 283 292 305 314 319 319 323 325 316 199 180 181 197 214 239 270 288 303 308 316 314 313 311 303 296 292 290 289 286 287 285 284 287 286 287 281
234 234 236 239 245 252 254 257 260 266 275 284 293 302 305 311 314 318 302 307 189 193 206 215 227 242 252 274 292 306 309 312 309 309 298 293 287 280 278 279 281 281 281 278 278 280 278
235 244 250 254 254 255 260 269 276 280 281 285 288 286 288 299 308 299 270 252 200 208 211 218 229 242 262 290 306 308 313 312 307 308 302 296 288 285 281 280 280 278 276 276 280 280 275
236 244 250 254 256 259 264 268 271 275 283 288 287 283 287 298 303 306 288 270 223 217 223 226 236 252 277 293 301 306 310 310 307 302 299 294 286 282 276 278 281 280 278 284 285 284 280
230 237 247 254 259 263 267 271 275 277 281 285 286 282 283 290 297 298 293 280 248 231 232 239 246 262 276 288 298 309 310 313 309 302 295 288 281 278 272 272 279 285 284 284 286 282 279
232 238 243 247 255 260 264 271 277 283 286 282 281 281 283 291 293 289 288 274 262 242 241 249 260 272 284 292 300 312 312 311 304 297 288 285 276 273 279 284 288 288 285 279 273 271 270
233 238 238 243 249 248 256 265 270 276 282 283 284 286 286 289 291 288 283 275 258 247 247 255 263 274 283 290 295 305 311 307 302 292 284 276 270 267 271 278 284 285 282 278 276 277 275
233 236 240 244 246 251 252 255 263 268 270 275 280 282 283 286 288 289 284 272 261 248 250 255 267 277 284 291 294 301 309 307 295 288 284 277 273 273 273 277 283 282 279 277 276 277 278
239 240 239 240 243 249 255 260 265 268 269 273 278 280 282 286 289 289 283 275 263 256 257 266 272 279 285 290 294 299 304 306 295 285 282 279 276 276 278 281 282 282 281 280 278 276 277
247 243 243 245 248 248 253 260 265 269 272 275 276 281 283 284 288 287 281 276 273 272 267 267 272 277 284 287 290 294 296 297 295 288 284 280 280 279 278 278 279 280 281 280 280 280 279
257 255 255 256 257 261 260 262 264 268 273 276 281 284 287 287 288 286 282 280 277 273 274 271 276 279 281 285 289 289 291 292 293 294 289 285 281 279 280 279 281 281 280 280 281 280 280
253 255 255 258 264 267 271 275 275 274 277 280 282 284 289 291 292 291 288 281 278 278 278 276 278 279 281 285 287 291 292 292 291 294 295 291 286 284 283 282 282 282 283 282 283 283 283
253 255 256 258 261 267 273 278 282 283 280 281 284 286 288 289 292 295 294 289 287 286 281 278 280 283 286 289 291 292 292 291 292 293 294 293 288 286 283 283 283 284 285 286 285 284 285
251 252 254 258 263 266 274 277 279 283 284 285 285 285 288 289 289 293 290 289 293 292 288 290 290 289 291 293 292 292 293 293 294 292 292 292 290 289 287 286 286 286 286 286 285 285 285
250 250 254 254 257 264 268 274 277 280 282 285 287 287 289 288 287 294 293 290 290 287 289 293 296 297 298 297 296 296 296 295 294 292 290 290 289 290 290 289 288 288 289 287 287 287 285
252 251 253 258 261 264 270 273 273 276 278 277 282 286 285 289 287 292 289 292 289 289 294 296 298 298 298 296 295 295 295 296 294 293 290 290 290 291 290 290 289 289 289 289 289 289 288
250 252 254 258 260 263 268 272 271 273 274 275 277 280 282 282 285 287 288 287 286 289 293 296 296 297 298 298 296 296 296 294 293 292 291 292 291 293 292 292 291 290 289 289 289 290 292
244 243 264 267 266 265 268 273 270 268 274 277 276 276 275 279 282 287 289 288 286 291 293 294 294 296 296 295 296 295 295 294 295 292 292 292 291 292 292 293 293 292 292 291 291 292 292
258 253 264 268 265 264 264 267 269 268 269 272 273 275 276 276 280 285 285 283 285 287 290 294 296 297 296 295 294 295 295 294 292 291 290 292 292 292 291 292 292 292 294 293 293 295 295
252 258 262 263 268 264 263 264 265 266 268 271 274 275 275 275 277 281 284 285 285 284 289 292 294 296 293 293 294 294 293 292 291 291 291 290 292 292 293 294 296 297 296 296 296 296 296
246 246 253 256 262 262 266 265 269 274 272 270 273 275 276 273 274 278 282 283 283 285 286 291 293 292 291 292 293 291 291 291 292 293 292 291 293 295 297 298 297 298 298 297 296 296 294
248 247 246 248 250 252 262 265 264 269 275 276 273 274 274 272 276 279 278 280 284 286 288 289 288 289 291 291 291 291 290 290 291 291 291 294 298 298 297 298 299 299 300 297 297 296 295
248 249 253 254 256 259 258 266 265 266 267 272 272 272 273 276 277 278 279 281 283 285 287 288 288 289 291 291 291 291 292 292 291 292 297 297 297 299 301 301 302 301 300 300 299 298 298
250 250 252 252 257 262 257 272 262 265 269 270 272 273 276 276 276 276 277 278 284 286 287 288 289 291 292 293 291 292 292 290 294 297 297 299 301 302 302 302 301 303 302 301 299 298 297
250 250 249 251 258 257 262 260 264 271 266 268 275 279 278 277 274 275 278 279 280 287 290 291 290 290 290 290 290 290 289 295 299 299 299 301 302 302 302 302 303 303 301 299 297 296 295
252 249 247 247 246 262 263 266 270 273 278 272 269 278 275 274 276 276 277 279 291 302 300 294 291 290 288 288 285 289 297 298 299 302 303 303 304 303 303 301 302 304 302 299 298 299 298
251 250 248 248 254 252 259 264 271 278 275 268 266 260 269 277 278 280 286 291 298 302 307 294 288 287 285 284 290 297 298 300 301 304 304 305 304 304 302 300 301 303 301 301 302 303 305
244 244 244 246 247 243 256 259 265 259 252 247 242 270 292 283 286 289 296 298 295 300 296 287 282 281 284 291 297 300 302 303 304 303 304 305 304 304 303 301 300 301 301 302 303 304 306
233 233 236 246 243 244 248 251 251 255 246 262 279 284 296 295 287 289 291 296 298 290 285 277 280 287 295 300 302 304 305 305 305 304 304 304 303 304 304 302 301 301 302 301 302 304 304
Height
5820 5821 5822 5823 5824 5825 5825 5825 5825 5825 5824 5824 5824 5823 5823 5823 5823 5822 5821 5820 5820 5822 5823 5824 5824 5824 5824 5823 5822 5821 5821 5820 5819 5818 5817 5815 5814 5813 5812 5812 5812 5811 5811 5810 5809 5809 5809
5820 5820 5821 5821 5822 5822 5823 5822 5822 5822 5822 5822 5822 5822 5822 5822 5821 5820 5819 5819 5820 5821 5821 5821 5821 5820 5821 5822 5820 5820 5819 5818 5817 5816 5814 5812 5811 5810 5810 5809 5809 5808 5807 5806 5805 5805 5804
5817 5818 5819 5819 5820 5821 5821 5821 5821 5820 5820 5820 5820 5820 5820 5820 5820 5819 5818 5817 5817 5817 5817 5817 5817 5818 5819 5820 5819 5818 5817 5816 5814 5812 5810 5808 5808 5807 5806 5806 5805 5805 5804 5802 5801 5800 5800
5815 5817 5818 5818 5819 5819 5819 5819 5819 5818 5818 5818 5818 5818 5818 5819 5818 5817 5817 5817 5815 5815 5815 5815 5816 5817 5818 5818 5817 5815 5813 5811 5809 5807 5806 5804 5803 5803 5802 5802 5802 5802 5802 5799 5798 5796 5795
5812 5814 5815 5816 5816 5816 5817 5817 5817 5817 5816 5816 5816 5816 5815 5815 5815 5815 5815 5815 5814 5813 5813 5814 5815 5816 5817 5816 5815 5813 5811 5809 5806 5804 5803 5801 5800 5800 5799 5798 5798 5798 5798 5796 5794 5792 5791
5809 5810 5812 5812 5813 5814 5814 5814 5814 5814 5814 5813 5813 5813 5813 5812 5812 5812 5811 5811 5810 5810 5811 5812 5813 5815 5814 5813 5811 5810 5808 5806 5804 5802 5800 5798 5796 5796 5797 5796 5796 5794 5793 5791 5787 5785 5783
5807 5808 5808 5809 5809 5809 5810 5811 5811 5812 5812 5811 5811 5810 5810 5809 5808 5807 5807 5807 5808 5808 5808 5809 5809 5809 5808 5807 5806 5804 5802 5800 5798 5798 5796 5795 5793 5791 5790 5790 5789 5788 5786 5784 5780 5778 5777
5804 5804 5805 5806 5807 5807 5807 5806 5807 5807 5807 5807 5807 5807 5806 5806 5804 5803 5802 5802 5802 5804 5804 5804 5804 5804 5804 5802 5801 5799 5797 5795 5793 5792 5792 5791 5789 5787 5785 5783 5782 5781 5778 5776 5773 5770 5768
5800 5801 5801 5802 5803 5803 5804 5804 5804 5804 5804 5803 5803 5802 5802 5801 5800 5799 5797 5797 5797 5799 5800 5801 5801 5800 5799 5797 5795 5794 5793 5790 5788 5785 5785 5785 5784 5781 5779 5777 5775 5773 5771 5768 5765 5761 5758
5796 5797 5797 5798 5799 5799 5799 5800 5800 5800 5800 5800 5799 5798 5797 5796 5796 5794 5793 5793 5794 5795 5796 5797 5796 5793 5792 5790 5790 5788 5786 5785 5782 5782 5780 5778 5776 5774 5772 5769 5766 5764 5762 5758 5755 5752 5749
5793 5793 5794 5794 5794 5795 5795 5795 5795 5795 5795 5795 5794 5793 5793 5791 5790 5789 5789 5789 5789 5789 5789 5790 5789 5788 5786 5786 5784 5782 5780 5778 5776 5775 5773 5771 5768 5767 5764 5760 5757 5754 5751 5748 5745 5742 5736
5788 5789 5789 5790 5790 5791 5791 5791 5791 5791 5791 5790 5790 5789 5788 5787 5786 5785 5783 5782 5783 5785 5782 5783 5782 5781 5779 5778 5777 5776 5774 5772 5769 5767 5764 5761 5759 5757 5754 5750 5747 5743 5740 5737 5734 5730 5725
5783 5784 5785 5786 5786 5785 5786 5787 5787 5787 5786 5786 5785 5785 5784 5782 5782 5780 5779 5779 5779 5777 5776 5776 5774 5773 5772 5771 5770 5768 5766 5764 5761 5759 5756 5752 5749 5746 5743 5739 5734 5731 5728 5723 5720 5716 5713
5776 5778 5780 5781 5782 5781 5781 5781 5781 5781 5781 5781 5780 5780 5779 5778 5778 5776 5775 5774 5773 5772 5770 5769 5768 5766 5765 5764 5762 5759 5758 5755 5752 5749 5745 5741 5738 5736 5733 5728 5725 5720 5717 5712 5702 5701 5699
5769 5771 5773 5774 5775 5776 5775 5776 5776 5775 5775 5775 5775 5775 5774 5773 5773 5772 5771 5769 5766 5765 5764 5762 5761 5759 5758 5756 5753 5750 5747 5745 5743 5739 5736 5730 5726 5724 5721 5716 5713 5708 5704 5698 5688 5684 5679
5762 5763 5765 5767 5769 5769 5769 5769 5769 5768 5768 5768 5768 5768 5768 5767 5767 5766 5765 5763 5760 5758 5757 5756 5754 5752 5749 5747 5744 5740 5736 5735 5730 5727 5723 5719 5714 5712 5708 5704 5700 5694 5689 5684 5676 5666 5660
5754 5756 5757 5759 5760 5761 5762 5762 5762 5761 5761 5761 5761 5761 5761 5759 5759 5759 5758 5757 5754 5752 5749 5747 5745 5742 5740 5737 5734 5729 5726 5723 5717 5714 5709 5705 5700 5699 5693 5689 5685 5681 5675 5669 5662 5654 5645
5745 5746 5749 5751 5752 5753 5754 5755 5754 5753 5753 5754 5753 5752 5753 5751 5751 5751 5749 5747 5746 5745 5742 5738 5734 5731 5728 5724 5720 5716 5714 5710 5706 5701 5696 5692 5685 5683 5679 5675 5670 5665 5660 5653 5644 5639 5630
5734 5737 5739 5741 5743 5744 5745 5745 5745 5745 5744 5744 5744 5744 5745 5743 5742 5741 5740 5738 5736 5734 5731 5728 5725 5723 5718 5714 5708 5705 5702 5699 5693 5688 5683 5679 5672 5668 5664 5662 5657 5650 5645 5638 5630 5621 5613
5723 5726 5728 5730 5731 5732 5733 5735 5734 5734 5734 5734 5734 5734 5736 5734 5733 5731 5730 5728 5727 5724 5720 5717 5713 5710 5705 5701 5697 5693 5689 5684 5679 5674 5669 5663 5660 5655 5651 5646 5642 5636 5629 5621 5612 5602 5595
5709 5715 5717 5719 5719 5722 5722 5722 5723 5724 5723 5725 5723 5724 5724 5723 5722 5721 5719 5718 5716 5712 5709 5705 5702 5698 5692 5689 5685 5680 5675 5670 5666 5662 5657 5651 5647 5644 5638 5634 5627 5621 5613 5604 5593 5583 5570
5696 5702 5704 5704 5708 5710 5711 5711 5711 5711 5712 5714 5712 5714 5713 5713 5712 5710 5707 5706 5703 5700 5698 5694 5690 5685 5681 5676 5672 5666 5662 5657 5653 5649 5643 5638 5634 5631 5627 5621 5612 5604 5597 5585 5575 5562 5549
5683 5688 5692 5695 5694 5696 5697 5700 5701 5701 5702 5701 5702 5702 5701 5700 5700 5698 5697 5695 5691 5689 5686 5682 5678 5673 5669 5665 5659 5654 5649 5645 5640 5637 5631 5626 5621 5615 5610 5603 5595 5587 5577 5565 5553 5541 5529
5671 5675 5680 5684 5685 5685 5687 5689 5690 5692 5692 5692 5692 5690 5690 5689 5687 5686 5684 5682 5679 5676 5673 5669 5665 5661 5657 5652 5647 5642 5637 5633 5629 5625 5621 5614 5607 5599 5591 5583 5575 5565 5553 5544 5533 5522 5512
5658 5663 5667 5670 5674 5676 5677 5680 5681 5682 5683 5681 5680 5679 5677 5677 5676 5673 5671 5669 5667 5664 5660 5656 5652 5647 5642 5639 5635 5630 5628 5624 5620 5614 5608 5601 5591 5581 5571 5563 5555 5545 5536 5526 5515 5509 5499
5646 5651 5654 5659 5663 5665 5668 5667 5669 5669 5669 5667 5669 5668 5667 5665 5664 5661 5659 5657 5655 5652 5649 5645 5641 5636 5631 5626 5622 5619 5614 5612 5607 5601 5594 5584 5575 5566 5554 5542 5531 5525 5517 5505 5497 5493 5485
5632 5638 5644 5648 5652 5655 5657 5657 5657 5657 5657 5657 5656 5656 5656 5654 5653 5650 5648 5646 5644 5641 5637 5633 5629 5625 5621 5617 5613 5609 5605 5600 5593 5587 5579 5569 5558 5548 5535 5522 5513 5505 5495 5489 5484 5479 5471
5616 5624 5630 5635 5640 5644 5645 5647 5649 5648 5648 5646 5646 5644 5645 5645 5644 5641 5638 5635 5632 5628 5624 5620 5617 5614 5610 5608 5603 5598 5594 5587 5581 5572 5563 5554 5542 5531 5519 5509 5500 5491 5483 5477 5471 5464 5460
5602 5612 5617 5624 5628 5631 5634 5635 5639 5640 5638 5637 5635 5634 5632 5632 5633 5631 5627 5625 5619 5615 5612 5608 5606 5603 5602 5597 5592 5587 5580 5573 5565 5557 5547 5536 5526 5514 5505 5495 5484 5477 5472 5466 5461 5456 5452